Regional Weather Roundup
Issued by NWS

Home | Current Version | Previous Version | Graphics & Text | Print | Product List | Glossary On
Versions: 1 2 3 4 5 6 7 8 9 10 11 12 13 14 15 16 17 18 19 20 21 22 23 24 25 26 27 28 29 30 31 32 33 34 35 36 37 38 39 40 41 42 43 44 45 46 47 48 49 50
000
ASUS43 KMPX 020710
RWRMN
WEATHER ROUNDUP FOR MINNESOTA
NATIONAL WEATHER SERVICE TWIN CITIES/CHANHASSEN MN
200 AM CDT TUE SEP 02 2014


NOTE: "FAIR" INDICATES FEW OR NO CLOUDS BELOW 12,000 FEET WITH NO
SIGNIFICANT WEATHER AND/OR OBSTRUCTIONS TO VISIBILITY. N/A MEANS
CURRENT SKY AND/OR WEATHER CONDITIONS ARE NOT AVAILABLE.

MNZ060>063-068>070-020800-
   Twin Cities Metro

CITY           SKY/WX    TMP DP  RH WIND       PRES   REMARKS
TWIN CITIES    PTCLDY    65  59  81 CALM      29.82S
ST PAUL        PTCLDY    61  59  93 S5        29.82S
CRYSTAL        MOCLDY    62  58  86 CALM      29.80S
BLAINE         CLOUDY    63  61  94 CALM      29.81S
LAKEVILLE      PTCLDY    63  57  82 W6        29.83S
EDEN PRAIRIE   MOCLDY    62  59  90 SW5       29.82R
SOUTH ST PAUL  PTCLDY    63  58  84 CALM      29.81F
LAKE ELMO      MOCLDY    61  59  94 CALM      29.82F
$$
MNZ001>005-007-008-013>017-022>024-027-028-020800-
   Northwest Minnesota

CITY           SKY/WX    TMP DP  RH WIND       PRES   REMARKS
BEMIDJI        PTCLDY    51  49  93 SW3       29.78S
HALLOCK        CLEAR     52  48  87 CALM      29.73S
ROSEAU           N/A     55  50  82 SW7       29.73F
WARROAD        PTCLDY    54  48  82 SW8       29.73F
THIEF RVR FALL CLEAR     52  50  93 CALM      29.77S
CROOKSTON      CLEAR     52  52 100 S3        29.77F
FOSSTON        CLEAR     46  46 100 S7        29.80S
DETROIT LAKES  PTCLDY    55  54  94 SW5       29.83S
MOORHEAD       PTCLDY    55  55 100 SW6       29.82S
PARK RAPIDS    MOCLDY    51  50  96 CALM      29.81S
MAHNOMEN       FAIR      51  50  98 S7        29.80S
$$
MNZ006-009>011-018-025>026-020800-
   North Central Minnesota

CITY           SKY/WX    TMP DP  RH WIND       PRES   REMARKS
BAUDETTE       CLEAR     54  51  90 W3        29.72S
FLAG ISLAND    CLEAR     57  52  82 W13       29.69S
INTL FALLS     CLEAR     49  47  93 SW6       29.73S
WASKISH        CLEAR     57  55  94 SW8         N/A
BIG FORK       FOG       46  45  93 CALM      29.77S VSB 3/4
LONGVILLE      PTCLDY    54  52  94 CALM      29.79S
GRAND RAPIDS   CLEAR     55  52  88 W5        29.79R
CRANE LAKE     CLEAR     46  46 100 CALM      29.76S
ORR            CLEAR     50  46  87 CALM      29.73F
COOK           CLEAR     52  50  93 CALM      29.76F
WALKER         FAIR      51  49  92 W3        29.79S
$$
MNZ012-019>021-037-020800-
   Northeast Minnesota

CITY           SKY/WX    TMP DP  RH WIND       PRES   REMARKS
DULUTH         CLEAR     57  51  80 NW9       29.77S
ELY            MOCLDY    52  50  93 CALM      29.75S
HIBBING        CLEAR     47  45  93 SW3       29.78R
EVELETH        CLEAR     54  52  94 W3        29.78R
DULUTH HARBOR  CLEAR     61  55  82 SW6       29.77R
TWO HARBORS    CLEAR     57  50  77 W6        29.74R
SILVER BAY     CLEAR     55  54  94 W3        29.73R
GRAND MARAIS     N/A     59  54  83 W5        29.71R
G MARAIS ARPRT PTCLDY    54  48  82 W6        29.74S
$$
MNZ029>031-032-039>041-046>048-054>057-064-020800-
   West Central Minnesota

CITY           SKY/WX    TMP DP  RH WIND       PRES   REMARKS
FERGUS FALLS   MOCLDY    55  54  94 CALM      29.84S
WHEATON        MOCLDY    54  52  94 SW3       29.87S
MORRIS         CLOUDY    57  55  94 W6        29.84S
ALEXANDRIA     CLOUDY    58  56  93 SW7       29.85R
ELBOW LAKE     FAIR      55  54  94 W5        29.84S
WADENA         CLOUDY    54  52  94 W6        29.82S
GLENWOOD       CLOUDY    61  57  88 W8        29.85R
APPLETON       CLOUDY    61  55  82 W3        29.85S
BENSON         CLOUDY    57  55  94 NW5       29.85R
ORTONVILLE     CLOUDY    61  55  82 NW7       29.85F
MADISON        CLOUDY    64  55  72 W7        29.86S
WILLMAR        FAIR      61  55  82 W5        29.85S
$$
MNZ033>034-036-042>043-049>051-058-059-020800-
   Central Minnesota

CITY           SKY/WX    TMP DP  RH WIND       PRES   REMARKS
ST CLOUD       CLOUDY    61  55  81 CALM      29.81F
SAUK CENTRE    FAIR      54  54 100 CALM      29.83S
PAYNESVILLE    HVY RAIN  56  55  97 CALM      29.83F
AITKIN         PTCLDY    55  48  76 CALM      29.79S
PINE RIVER     MOCLDY    54  54 100 CALM      29.84S
BRAINERD       MOCLDY    55  53  93 W5        29.82R
STAPLES        CLOUDY    52  52 100 CALM      29.82S
LONG PRAIRIE   FAIR      54  52  94 SW3       29.83S
LITTLE FALLS   CLOUDY    54  52  94 CALM      29.82S
LITCHFIELD     CLOUDY    63  59  88 CALM      29.84S
BUFFALO        MOCLDY    62  57  84 CALM      29.83S
MAPLE LAKE     CLOUDY    59  58  96 CALM      29.83S
$$
MNZ037-044-045-052-053-020800-
   East Central Minnesota

CITY           SKY/WX    TMP DP  RH WIND       PRES   REMARKS
PRINCETON      MOCLDY    57  55  94 CALM      29.81S
MORA           PTCLDY    55  50  82 CALM      29.82R
CAMBRIDGE      PTCLDY    61  52  72 CALM      29.79S
RUSH CITY      PTCLDY    58  55  89 CALM      29.80S
MOOSE LAKE     CLEAR     55  52  88 NW3       29.77S
HINCKLEY       FAIR      52  52 100 N3        29.81R
CLOQUET        CLEAR     55  52  88 W6        29.79R
MCGREGOR       CLEAR     54  52  94 CALM      29.80S
$$
MNZ071>073-080-081-089-090-097-098-020800-
   Southwest Minnesota

CITY           SKY/WX    TMP DP  RH WIND       PRES   REMARKS
MONTEVIDEO     CLOUDY    61  55  82 W3        29.86S
GRANITE FALLS  CLOUDY    58  55  91 W6        29.86F
CANBY          CLOUDY    63  54  73 W12       29.87S
MARSHALL       CLOUDY    63  52  67 W9        29.86R
REDWOOD FALLS  CLOUDY    64  53  67 W10       29.85S
OLIVIA         CLOUDY    61  54  77 W5        29.84S
PIPESTONE      CLOUDY    63  54  72 NW10G17   29.90R
WINDOM         CLOUDY    61  57  88 CALM      29.88R
WORTHINGTON    CLOUDY    61  54  77 W6        29.89S
JACKSON        CLOUDY    61  55  82 W3        29.88S
TRACY          CLOUDY    63  54  74 W6        29.87S
SLAYTON        CLOUDY    61  53  73 W7        29.89S
$$
MNZ065>067-074>077-082>085-091>093-020800-
   South Central Minnesota

CITY           SKY/WX    TMP DP  RH WIND       PRES   REMARKS
MANKATO        MOCLDY    61  55  82 SW6       29.85S
NEW ULM        CLOUDY    61  61 100 W6        29.85S
ST JAMES       CLOUDY    61  57  88 W3        29.87S
FAIRMONT       CLOUDY    59  54  82 CALM      29.86S
GLENCOE        CLOUDY    62  56  80 SW3       29.83S
FARIBAULT      PTCLDY    63  55  77 CALM      29.85R
OWATONNA       PTCLDY    61  55  82 CALM      29.85S
WASECA         PTCLDY    55  52  88 CALM      29.87F
ALBERT LEA     PTCLDY    61  57  88 CALM      29.87S
$$
MNZ078>079-086>088-094>096-020800-
   Southeast Minnesota

CITY           SKY/WX    TMP DP  RH WIND       PRES   REMARKS
ROCHESTER      CLEAR     57  54  89 S6        29.87S
RED WING       CLEAR     57  55  94 CALM      29.81F
STANTON        CLEAR     61  56  84 S3        29.83R
DODGE CENTER   CLEAR     59  55  88 SW5       29.86S
WINONA         CLEAR     59  59 100 CALM      29.85F
AUSTIN         CLEAR     57  55  94 S3        29.87S
PRESTON        CLEAR     58  58 100 CALM      29.88F
$$
ABBREVIATIONS USED IN REMARKS
   TC - TEMPERATURES IN CELSIUS
  WCI - WIND CHILL INDEX
   HX - HEAT INDEX
  VSB - VISIBILITY
$$


USA.gov is the U.S. government's official web portal to all federal, state and local government web resources and services.